{"data":{"norad_id":55316,"intl_designator":"2023-010AZ","name":"STARLINK-5257","alt_names":[],"object_type":"PAYLOAD","status":"ACTIVE","operator":null,"country":"US","launch_date":"2023-01-19","launch_site_code":"AFWTR","launch_vehicle":null,"mission":null,"orbit_class":"UNKNOWN","rcs_meters":null,"size_class":null,"mass_kg":null,"dimensions":null,"purposes":["comms"],"wikipedia_slug":null,"has_3d_model":false,"image_url":null,"decayed_at":null,"tle_current":{"epoch":"2026-09-20T22:00:03.000096Z","epoch_age_seconds":60711,"freshness":"FRESH","line1":"1 55316U 23010AZ  26263.91670139  .00052028  00000+0  35183-2 0  9999","line2":"2 55316  70.0002 232.0398 0005507 271.7669 327.3653 15.06250907  5765","mean_motion":15.06250907,"eccentricity":0.0005507,"inclination_deg":70.0002,"raan_deg":232.0398,"arg_perigee_deg":271.7669,"mean_anomaly_deg":327.3653,"bstar":0.0035183,"rev_number":576,"period_min":95.601602183799,"perigee_km":543.85450308807,"apogee_km":551.48258531445,"semimajor_km":6925.8055442013,"source":"CELESTRAK","updated_at":"2026-09-21T09:00:33.176285Z"}}}